Language: 


Des rapports , des résumés tant et plus, au choix de chacun....


Données statistiques de la station
Quotidien Rapport Février 5, 2018 Unités:  Métrique    Anglais   les deux
« Précédent Jour
Suivant Jour »
Quotidien Hebdomadaire Mensuel Annuel Actuel
  Haut: Bas: Moyen:
Température: -17.8 °C -17.8 °C -16.6 °C
Pt de rosée: -17.8 °C -19.4 °C -17.8 °C
Humidité: Humidity % 0 % 81 %
Vitesse du vent: 0 km/h 0 km/h 19.6 km/h
Rafales: 0 km/h - -
Vent:- - ENE
Pression: 0 hPa 0 hPa -
Précipitation: 0 mm    
Historical Graphs
 
 
Données statistiques pour Février 5, 2018
Heure Température Point de rosée Pression Vent Vitesse du vent Refales Humidité Pluie (taux horaire)
-17.8 °C -17.8 °C 0 hPa Calm     Humidity % 0 mm
00:04 -16.5 °C -17.2 °C 34703.1 hPa NE 19.2 km/h 22.5 km/h 90 % 0 mm
00:09 -16.5 °C -17.2 °C 34703.1 hPa NE 12.7 km/h 24.3 km/h 90 % 0 mm
00:14 -16.5 °C -17.2 °C 34669.3 hPa NE 27.2 km/h 27.2 km/h 90 % 0 mm
00:19 -16.5 °C -17.2 °C 34669.3 hPa NE 22 km/h 27.2 km/h 90 % 0 mm
00:24 -16.5 °C -17.2 °C 34669.3 hPa NE 17.9 km/h 25.4 km/h 90 % 0 mm
00:29 -16.5 °C -17.2 °C 34669.3 hPa NE 20.9 km/h 22 km/h 90 % 0 mm
00:34 -16.5 °C -17.2 °C 34669.3 hPa NE 20.9 km/h 22 km/h 90 % 0 mm
00:39 -16.5 °C -17.2 °C 34669.3 hPa NE 19.2 km/h 24.8 km/h 90 % 0 mm
00:44 -16.5 °C -17.2 °C 34703.1 hPa NE 22 km/h 25.4 km/h 90 % 0 mm
00:49 -16.5 °C -17.2 °C 34703.1 hPa NNE 26.7 km/h 31.4 km/h 90 % 0 mm
00:54 -16.5 °C -17.2 °C 34703.1 hPa NE 22.5 km/h 33.2 km/h 90 % 0 mm
00:59 -16.5 °C -17.2 °C 34703.1 hPa ENE 16.3 km/h 33.2 km/h 90 % 0 mm
01:04 -16.5 °C -17.2 °C 34703.1 hPa ENE 19.2 km/h 27.2 km/h 90 % 0 mm
01:09 -16.5 °C -17.2 °C 34703.1 hPa NE 16.9 km/h 26.7 km/h 90 % 0 mm
01:14 -16.5 °C -17.2 °C 34669.3 hPa ENE 18.7 km/h 24.8 km/h 90 % 0 mm
01:19 -16.5 °C -17.2 °C 34669.3 hPa ENE 24.8 km/h 24.8 km/h 90 % 0 mm
01:24 -16.5 °C -17.2 °C 34669.3 hPa NNE 20.9 km/h 26.7 km/h 90 % 0 mm
01:29 -16.5 °C -17.2 °C 34669.3 hPa NE 15.6 km/h 26.7 km/h 90 % 0 mm
01:34 -16.5 °C -17.2 °C 34669.3 hPa ENE 20.3 km/h 26.2 km/h 90 % 0 mm
01:39 -16.5 °C -17.2 °C 34669.3 hPa ENE 20.3 km/h 26.2 km/h 90 % 0 mm
01:44 -16.5 °C -17.2 °C 34635.4 hPa NE 20.9 km/h 22 km/h 90 % 0 mm
01:49 -16.5 °C -17.2 °C 34635.4 hPa NE 16.3 km/h 22 km/h 90 % 0 mm
01:54 -16.5 °C -17.2 °C 34635.4 hPa ENE 15 km/h 22 km/h 90 % 0 mm
01:59 -16.5 °C -17.2 °C 34635.4 hPa NE 15 km/h 20.9 km/h 90 % 0 mm
02:04 -16.5 °C -17.2 °C 34635.4 hPa NNE 19.6 km/h 22.5 km/h 90 % 0 mm
02:09 -16.5 °C -17.2 °C 34635.4 hPa NE 20.3 km/h 33.2 km/h 90 % 0 mm
02:14 -16.5 °C -17.2 °C 34635.4 hPa ENE 15 km/h 33.2 km/h 90 % 0 mm
02:20 -16.5 °C -17.2 °C 34635.4 hPa ENE 19.6 km/h 26.2 km/h 90 % 0 mm
02:25 -16.5 °C -17.2 °C 34635.4 hPa NNE 11.1 km/h 22 km/h 90 % 0 mm
02:30 -16.5 °C -17.2 °C 34635.4 hPa ENE 11.1 km/h 14.5 km/h 90 % 0 mm
02:35 -16.5 °C -17.2 °C 34635.4 hPa Calm   16.3 km/h 90 % 0 mm
02:40 -16.5 °C -17.2 °C 34635.4 hPa NE 4.2 km/h 16.3 km/h 90 % 0 mm
02:45 -16.5 °C -17.2 °C 34635.4 hPa NE 8 km/h 12.7 km/h 90 % 0 mm
02:50 -16.5 °C -17.2 °C 34635.4 hPa ENE 11.6 km/h 14 km/h 90 % 0 mm
02:55 -16.5 °C -17.2 °C 34635.4 hPa Calm   14 km/h 90 % 0 mm
03:00 -16.5 °C -17.2 °C 34635.4 hPa NE 11.1 km/h 19.2 km/h 90 % 0 mm
03:05 -16.5 °C -17.2 °C 34635.4 hPa NE 11.1 km/h 19.2 km/h 90 % 0 mm
03:10 -16.5 °C -17.2 °C 34635.4 hPa NE 14 km/h 15 km/h 90 % 0 mm
03:15 -16.5 °C -17.2 °C 34635.4 hPa NE 12.7 km/h 14.5 km/h 90 % 0 mm
03:20 -16.5 °C -17.2 °C 34635.4 hPa NNE 14 km/h 15.6 km/h 90 % 0 mm
03:25 -16.5 °C -17.2 °C 34635.4 hPa ENE 18.7 km/h 23.8 km/h 90 % 0 mm
03:30 -16.5 °C -17.2 °C 34669.3 hPa NNE 16.9 km/h 23.8 km/h 90 % 0 mm
03:35 -16.5 °C -17.2 °C 34669.3 hPa NE 16.3 km/h 20.9 km/h 90 % 0 mm
03:40 -16.5 °C -17.2 °C 34669.3 hPa NE 15 km/h 22.5 km/h 90 % 0 mm
03:45 -16.5 °C -17.2 °C 34635.4 hPa ENE 20.3 km/h 24.3 km/h 90 % 0 mm
03:50 -16.5 °C -17.2 °C 34635.4 hPa ENE 24.8 km/h 24.8 km/h 90 % 0 mm
03:55 -16.5 °C -17.2 °C 34635.4 hPa ENE 15 km/h 24.8 km/h 90 % 0 mm
04:00 -16.5 °C -17.2 °C 34635.4 hPa ENE 24.3 km/h 24.8 km/h 90 % 0 mm
04:05 -16.5 °C -17.2 °C 34635.4 hPa ENE 19.6 km/h 24.3 km/h 90 % 0 mm
04:11 -16.5 °C -17.2 °C 34635.4 hPa ENE 17.9 km/h 22.5 km/h 90 % 0 mm
04:16 -16.5 °C -17.2 °C 34635.4 hPa ENE 20.3 km/h 20.9 km/h 90 % 0 mm
04:21 -16.5 °C -17.2 °C 34635.4 hPa NE 22.5 km/h 23 km/h 90 % 0 mm
04:26 -16.5 °C -17.2 °C 34635.4 hPa ENE 14.5 km/h 23 km/h 90 % 0 mm
04:31 -16.5 °C -17.2 °C 34635.4 hPa ENE 16.9 km/h 22.5 km/h 90 % 0 mm
04:36 -16.5 °C -17.2 °C 34635.4 hPa ENE 19.6 km/h 22 km/h 90 % 0 mm
04:41 -16.5 °C -17.2 °C 34635.4 hPa NE 15 km/h 26.2 km/h 90 % 0 mm
04:46 -16.5 °C -17.2 °C 34635.4 hPa ENE 22 km/h 27.2 km/h 90 % 0 mm
04:51 -16.5 °C -17.2 °C 34635.4 hPa ENE 24.8 km/h 27.2 km/h 90 % 0 mm
04:56 -16.5 °C -17.2 °C 34635.4 hPa ENE 19.2 km/h 24.8 km/h 90 % 0 mm
05:01 -16.5 °C -17.2 °C 34635.4 hPa NE 20.9 km/h 22 km/h 90 % 0 mm
05:06 -16.5 °C -17.2 °C 34635.4 hPa ENE 20.3 km/h 20.9 km/h 90 % 0 mm
05:11 -16.5 °C -17.2 °C 34635.4 hPa NE 16.3 km/h 22.5 km/h 90 % 0 mm
05:16 -16.5 °C -17.2 °C 34635.4 hPa NE 20.3 km/h 22.5 km/h 90 % 0 mm
05:21 -16.5 °C -17.2 °C 34635.4 hPa ENE 18.7 km/h 20.9 km/h 90 % 0 mm
05:26 -16.5 °C -17.2 °C 34635.4 hPa NE 16.9 km/h 23 km/h 90 % 0 mm
05:31 -16.5 °C -17.2 °C 34635.4 hPa ENE 19.6 km/h 23 km/h 90 % 0 mm
05:36 -16.5 °C -17.2 °C 34635.4 hPa NE 16.9 km/h 22.5 km/h 90 % 0 mm
05:41 -16.5 °C -17.2 °C 34635.4 hPa NE 14 km/h 22.5 km/h 90 % 0 mm
05:46 -16.5 °C -17.2 °C 34635.4 hPa ENE 18.7 km/h 20.9 km/h 90 % 0 mm
05:51 -16.5 °C -17.2 °C 34635.4 hPa NE 16.9 km/h 22.5 km/h 90 % 0 mm
05:56 -16.5 °C -17.2 °C 34635.4 hPa NE 16.9 km/h 22.5 km/h 90 % 0 mm
06:01 -16.5 °C -17.2 °C 34635.4 hPa NE 22 km/h 22 km/h 90 % 0 mm
06:06 -16.5 °C -17.2 °C 34635.4 hPa NE 16.3 km/h 22 km/h 90 % 0 mm
06:12 -16.5 °C -17.2 °C 34635.4 hPa NE 14.5 km/h 17.4 km/h 90 % 0 mm
06:17 -16.5 °C -17.2 °C 34601.5 hPa NE 22 km/h 24.8 km/h 90 % 0 mm
06:22 -16.5 °C -17.2 °C 34601.5 hPa NE 20.3 km/h 25.4 km/h 90 % 0 mm
06:27 -16.5 °C -17.2 °C 34601.5 hPa NNE 19.2 km/h 25.4 km/h 90 % 0 mm
06:32 -16.5 °C -17.2 °C 34635.4 hPa NE 14.5 km/h 22 km/h 90 % 0 mm
06:37 -16.5 °C -17.2 °C 34635.4 hPa NNE 19.6 km/h 19.6 km/h 90 % 0 mm
06:42 -16.5 °C -17.2 °C 34635.4 hPa NNE 20.3 km/h 22 km/h 90 % 0 mm
06:47 -16.5 °C -17.2 °C 34635.4 hPa NE 16.9 km/h 22 km/h 90 % 0 mm
06:52 -16.5 °C -17.2 °C 34635.4 hPa NE 19.2 km/h 24.8 km/h 90 % 0 mm
06:57 -16.5 °C -17.2 °C 34635.4 hPa NE 15.6 km/h 24.8 km/h 90 % 0 mm
07:02 -16.5 °C -17.2 °C 34635.4 hPa NE 15.6 km/h 24.8 km/h 90 % 0 mm
07:07 -16.5 °C -17.2 °C 34635.4 hPa NE 15 km/h 15 km/h 90 % 0 mm
07:12 -16.5 °C -17.2 °C 34635.4 hPa NE 15 km/h 15 km/h 90 % 0 mm
07:17 -16.5 °C -17.2 °C 34635.4 hPa NNE 15 km/h 15 km/h 90 % 0 mm
07:22 -16.5 °C -17.2 °C 34635.4 hPa NNE 15 km/h 15 km/h 90 % 0 mm
07:27 -16.5 °C -17.2 °C 34635.4 hPa NNE 15 km/h 15 km/h 90 % 0 mm
07:32 -16.5 °C -17.2 °C 34669.3 hPa NNE 15.6 km/h 18.7 km/h 90 % 0 mm
07:37 -16.5 °C -17.2 °C 34669.3 hPa NNE 20.3 km/h 22 km/h 90 % 0 mm
07:42 -16.5 °C -17.2 °C 34669.3 hPa NNE 19.2 km/h 24.8 km/h 90 % 0 mm
07:47 -16.5 °C -17.2 °C 34669.3 hPa NE 20.3 km/h 27.2 km/h 90 % 0 mm
07:52 -16.5 °C -17.2 °C 34669.3 hPa NE 19.6 km/h 27.2 km/h 90 % 0 mm
07:57 -16.5 °C -17.2 °C 34669.3 hPa NE 18.7 km/h 27.7 km/h 90 % 0 mm
08:02 -16.5 °C -17.2 °C 34669.3 hPa NNE 15 km/h 28.5 km/h 90 % 0 mm
08:07 -16.5 °C -17.2 °C 34669.3 hPa NE 19.6 km/h 28.5 km/h 90 % 0 mm
08:12 -16.5 °C -17.2 °C 34669.3 hPa NE 28.5 km/h 31.9 km/h 90 % 0 mm
08:17 -16.5 °C -17.2 °C 34669.3 hPa NE 25.4 km/h 32.3 km/h 90 % 0 mm
08:22 -16.5 °C -17.2 °C 34669.3 hPa NNE 25.4 km/h 32.3 km/h 90 % 0 mm
08:27 -16.5 °C -17.2 °C 34669.3 hPa ENE 16.3 km/h 33.2 km/h 90 % 0 mm
08:32 -16.5 °C -17.2 °C 34669.3 hPa NE 19.6 km/h 33.2 km/h 90 % 0 mm
08:37 -16.5 °C -17.2 °C 34669.3 hPa NE 25.4 km/h 32.3 km/h 90 % 0 mm
08:42 -16.5 °C -17.2 °C 34669.3 hPa ENE 22.5 km/h 32.3 km/h 90 % 0 mm
08:47 -16.5 °C -17.2 °C 34669.3 hPa ENE 25.4 km/h 31.9 km/h 90 % 0 mm
08:52 -16.5 °C -17.2 °C 34669.3 hPa ENE 20.9 km/h 28.5 km/h 90 % 0 mm
09:00 -16.5 °C -17.2 °C 34669.3 hPa NNE 19.6 km/h 29.5 km/h 90 % 0 mm
09:05 -16.5 °C -17.2 °C 34669.3 hPa ENE 22.5 km/h 29.5 km/h 90 % 0 mm
09:10 -16.5 °C -17.2 °C 34669.3 hPa NE 15 km/h 30.7 km/h 90 % 0 mm
09:15 -16.5 °C -17.2 °C 34669.3 hPa ENE 19.2 km/h 30.7 km/h 90 % 0 mm
09:20 -16.5 °C -17.2 °C 34669.3 hPa ENE 15 km/h 26.2 km/h 90 % 0 mm
09:25 -16.5 °C -17.2 °C 34669.3 hPa NE 15 km/h 26.7 km/h 90 % 0 mm
09:30 -16.5 °C -17.2 °C 34669.3 hPa NE 22 km/h 26.7 km/h 90 % 0 mm
09:35 -16.5 °C -17.2 °C 34669.3 hPa ENE 32.3 km/h 38.3 km/h 90 % 0 mm
09:40 -16.5 °C -17.2 °C 34669.3 hPa ENE 26.7 km/h 38.3 km/h 90 % 0 mm
09:45 -16.5 °C -17.2 °C 34669.3 hPa East 26.2 km/h 38.3 km/h 90 % 0 mm
09:51 -16.5 °C -17.2 °C 34669.3 hPa ENE 45.9 km/h 45.9 km/h 90 % 0 mm
09:56 -16.5 °C -17.2 °C 34669.3 hPa ENE 45.9 km/h 45.9 km/h 90 % 0 mm
10:01 -16.5 °C -17.2 °C 34669.3 hPa ENE 22 km/h 22 km/h 90 % 0 mm
10:06 -16.5 °C -17.2 °C 34669.3 hPa ENE 27.7 km/h 37 km/h 90 % 0 mm
10:11 -16.5 °C -17.2 °C 34669.3 hPa NE 26.7 km/h 37 km/h 90 % 0 mm
10:16 -16.5 °C -17.2 °C 34669.3 hPa NE 22.5 km/h 32.3 km/h 90 % 0 mm
10:21 -16.5 °C -17.2 °C 34669.3 hPa ENE 22.5 km/h 37.5 km/h 90 % 0 mm
10:26 -16.5 °C -17.2 °C 34669.3 hPa ENE 25.4 km/h 37.5 km/h 90 % 0 mm
10:31 -17.8 °C -17.2 °C 0 hPa ENE 22 km/h 31.4 km/h 0 % 0 mm
10:36 -17.8 °C -17.2 °C 34669.3 hPa ENE 22 km/h 31.4 km/h 0 % 0 mm
10:41 -17.8 °C -17.2 °C 34669.3 hPa NE 15 km/h 23 km/h 0 % 0 mm
10:46 -17.8 °C -17.2 °C 34669.3 hPa NE 16.9 km/h 19.6 km/h 0 % 0 mm
10:51 -17.8 °C -17.2 °C 34669.3 hPa ENE 15 km/h 16.9 km/h 0 % 0 mm
10:56 -17.8 °C -17.2 °C 34669.3 hPa East 20.3 km/h 24.8 km/h 0 % 0 mm
11:01 -17.8 °C -17.2 °C 34635.4 hPa NE 16.9 km/h 24.8 km/h 0 % 0 mm
11:06 -15.2 °C -19.4 °C 34635.4 hPa NE 16.9 km/h 20.9 km/h 57 % 0 mm
11:11 -15.8 °C -19.4 °C 34635.4 hPa NE 16.9 km/h 16.9 km/h 61 % 0 mm
11:16 -16.1 °C -18.9 °C 34635.4 hPa NE 16.9 km/h 16.9 km/h 67 % 0 mm
11:21 -16.3 °C -18.9 °C 34635.4 hPa NE 16.9 km/h 16.9 km/h 70 % 0 mm
11:27 -16.4 °C -18.3 °C 34635.4 hPa NE 16.9 km/h 16.9 km/h 73 % 0 mm
11:32 -16.4 °C -18.3 °C 34635.4 hPa NE 16.9 km/h 16.9 km/h 74 % 0 mm
11:43 -16.4 °C -18.3 °C 34635.4 hPa NE 16.9 km/h 16.9 km/h 77 % 0 mm
11:48 -16.4 °C -18.3 °C 34635.4 hPa NE 16.9 km/h 16.9 km/h 77 % 0 mm
11:53 -16.5 °C -18.3 °C 34635.4 hPa NE 16.9 km/h 16.9 km/h 77 % 0 mm
11:58 -16.6 °C -18.3 °C 34635.4 hPa NE 16.9 km/h 16.9 km/h 77 % 0 mm
12:03 -16.6 °C -18.3 °C 34635.4 hPa NE 16.9 km/h 16.9 km/h 78 % 0 mm
12:08 -16.5 °C -18.3 °C 34635.4 hPa NE 16.9 km/h 16.9 km/h 78 % 0 mm
12:13 -16.5 °C -18.3 °C 34635.4 hPa NE 16.9 km/h 16.9 km/h 77 % 0 mm
12:18 -16.5 °C -18.3 °C 34635.4 hPa NNE 26.7 km/h 26.7 km/h 77 % 0 mm
12:23 -16.4 °C -18.3 °C 34635.4 hPa NNE 26.7 km/h 26.7 km/h 77 % 0 mm
12:28 -16.3 °C -18.3 °C 34635.4 hPa NNE 26.7 km/h 26.7 km/h 77 % 0 mm
12:33 -16.3 °C -18.3 °C 34635.4 hPa NNE 26.7 km/h 26.7 km/h 76 % 0 mm
12:38 -16.2 °C -18.3 °C 34635.4 hPa East 16.9 km/h 26.7 km/h 76 % 0 mm
12:43 -16.1 °C -18.3 °C 34635.4 hPa East 16.9 km/h 19.2 km/h 75 % 0 mm
12:48 -16.1 °C -18.3 °C 34635.4 hPa East 16.9 km/h 16.9 km/h 74 % 0 mm
12:53 -16.1 °C -18.3 °C 34635.4 hPa East 16.9 km/h 16.9 km/h 75 % 0 mm
12:58 -15.9 °C -17.8 °C 34635.4 hPa East 16.9 km/h 16.9 km/h 75 % 0 mm
13:03 -15.8 °C -17.8 °C 34635.4 hPa East 16.9 km/h 16.9 km/h 74 % 0 mm
13:08 -15.7 °C -17.8 °C 34635.4 hPa East 16.9 km/h 16.9 km/h 74 % 0 mm
13:13 -15.7 °C -18.3 °C 34635.4 hPa East 16.9 km/h 16.9 km/h 73 % 0 mm
13:18 -15.7 °C -18.3 °C 34635.4 hPa East 16.9 km/h 16.9 km/h 73 % 0 mm
13:23 -15.8 °C -18.3 °C 34635.4 hPa East 16.9 km/h 16.9 km/h 72 % 0 mm
13:28 -15.9 °C -18.3 °C 34635.4 hPa East 16.9 km/h 16.9 km/h 72 % 0 mm
13:34 -15.9 °C -18.3 °C 34635.4 hPa East 16.9 km/h 16.9 km/h 72 % 0 mm
13:39 -15.8 °C -17.8 °C 34635.4 hPa East 16.9 km/h 16.9 km/h 74 % 0 mm
13:44 -15.8 °C -18.3 °C 34635.4 hPa East 16.9 km/h 16.9 km/h 73 % 0 mm
13:49 -15.7 °C -18.3 °C 34635.4 hPa East 16.9 km/h 16.9 km/h 72 % 0 mm
13:54 -15.7 °C -17.8 °C 34635.4 hPa East 16.9 km/h 16.9 km/h 74 % 0 mm
13:59 -15.7 °C -18.3 °C 34601.5 hPa East 16.9 km/h 16.9 km/h 72 % 0 mm
14:04 -15.7 °C -18.3 °C 34601.5 hPa East 16.9 km/h 16.9 km/h 71 % 0 mm
14:09 -15.7 °C -18.3 °C 34601.5 hPa East 16.9 km/h 16.9 km/h 72 % 0 mm
14:14 -15.8 °C -18.3 °C 34601.5 hPa East 16.9 km/h 16.9 km/h 72 % 0 mm
14:19 -15.7 °C -18.3 °C 34601.5 hPa East 16.9 km/h 16.9 km/h 72 % 0 mm
14:24 -15.6 °C -18.3 °C 34601.5 hPa East 16.9 km/h 16.9 km/h 71 % 0 mm
14:29 -15.6 °C -18.3 °C 34601.5 hPa East 16.9 km/h 16.9 km/h 71 % 0 mm
14:34 -15.4 °C -17.8 °C 34601.5 hPa East 16.9 km/h 16.9 km/h 71 % 0 mm
14:39 -15.4 °C -18.3 °C 34601.5 hPa East 16.9 km/h 16.9 km/h 70 % 0 mm
14:44 -15.4 °C -18.3 °C 34601.5 hPa East 16.9 km/h 16.9 km/h 69 % 0 mm
14:50 -15.4 °C -18.3 °C 34601.5 hPa East 16.9 km/h 16.9 km/h 68 % 0 mm
14:55 -15.3 °C -18.3 °C 34601.5 hPa East 16.9 km/h 16.9 km/h 67 % 0 mm
15:00 -15.3 °C -18.3 °C 34567.7 hPa East 16.9 km/h 16.9 km/h 66 % 0 mm
15:05 -15.4 °C -18.3 °C 34567.7 hPa NE 34.1 km/h 34.1 km/h 66 % 0 mm
15:10 -15.5 °C -18.9 °C 34567.7 hPa NE 34.1 km/h 34.1 km/h 66 % 0 mm
15:15 -15.5 °C -18.3 °C 34567.7 hPa NE 34.1 km/h 34.1 km/h 67 % 0 mm
15:20 -15.5 °C -18.3 °C 34567.7 hPa NE 34.1 km/h 34.1 km/h 68 % 0 mm
15:25 -15.6 °C -18.3 °C 34567.7 hPa NE 34.1 km/h 34.1 km/h 68 % 0 mm
15:30 -15.7 °C -18.3 °C 34567.7 hPa NE 26.7 km/h 33.2 km/h 69 % 0 mm
15:35 -15.7 °C -18.3 °C 34567.7 hPa NE 26.7 km/h 33.2 km/h 71 % 0 mm
15:40 -15.7 °C -18.3 °C 34567.7 hPa NE 26.7 km/h 26.7 km/h 69 % 0 mm
15:45 -15.6 °C -18.3 °C 34533.8 hPa NE 26.7 km/h 26.7 km/h 69 % 0 mm
15:50 -15.6 °C -18.3 °C 34533.8 hPa NE 26.7 km/h 26.7 km/h 67 % 0 mm
15:55 -15.5 °C -18.3 °C 34533.8 hPa NE 26.7 km/h 26.7 km/h 68 % 0 mm
16:00 -15.4 °C -18.3 °C 34567.7 hPa NE 26.7 km/h 26.7 km/h 68 % 0 mm
16:05 -15.4 °C -18.3 °C 34567.7 hPa NE 26.7 km/h 26.7 km/h 68 % 0 mm
16:10 -15.3 °C -18.3 °C 34567.7 hPa NE 26.7 km/h 26.7 km/h 69 % 0 mm
16:15 -15.3 °C -18.3 °C 34567.7 hPa NE 26.7 km/h 26.7 km/h 69 % 0 mm
16:20 -15.3 °C -18.3 °C 34567.7 hPa NE 26.7 km/h 26.7 km/h 69 % 0 mm
16:25 -15.4 °C -18.3 °C 34567.7 hPa NE 26.7 km/h 26.7 km/h 69 % 0 mm
16:30 -15.4 °C -18.3 °C 34567.7 hPa NE 26.7 km/h 26.7 km/h 67 % 0 mm
16:35 -15.5 °C -18.3 °C 34567.7 hPa NE 26.7 km/h 26.7 km/h 67 % 0 mm
16:40 -15.6 °C -18.3 °C 34567.7 hPa ENE 22 km/h 22 km/h 67 % 0 mm
16:45 -15.6 °C -18.3 °C 34567.7 hPa ENE 22 km/h 22 km/h 67 % 0 mm
16:50 -15.6 °C -18.3 °C 34567.7 hPa ENE 22 km/h 22 km/h 68 % 0 mm
16:55 -15.7 °C -18.3 °C 34567.7 hPa ENE 22 km/h 22 km/h 69 % 0 mm
17:00 -15.7 °C -18.3 °C 34567.7 hPa ENE 22 km/h 22 km/h 70 % 0 mm
17:05 -15.8 °C -18.3 °C 34567.7 hPa ENE 22 km/h 22 km/h 68 % 0 mm
17:10 -15.9 °C -18.9 °C 34567.7 hPa ENE 22 km/h 22 km/h 67 % 0 mm
17:15 -15.9 °C -18.9 °C 34567.7 hPa ENE 22 km/h 22 km/h 68 % 0 mm
17:20 -16.1 °C -18.9 °C 34567.7 hPa ENE 22 km/h 22 km/h 69 % 0 mm
17:25 -16.1 °C -18.9 °C 34567.7 hPa ENE 22 km/h 22 km/h 70 % 0 mm
17:30 -16.2 °C -18.3 °C 34567.7 hPa ENE 22 km/h 22 km/h 71 % 0 mm
17:35 -16.2 °C -18.3 °C 34567.7 hPa ENE 22 km/h 22 km/h 73 % 0 mm
17:40 -16.3 °C -18.3 °C 34567.7 hPa ENE 22 km/h 22 km/h 73 % 0 mm
17:45 -16.3 °C -18.3 °C 34567.7 hPa ENE 22 km/h 22 km/h 74 % 0 mm
17:50 -16.3 °C -18.3 °C 34567.7 hPa ENE 22 km/h 22 km/h 73 % 0 mm
17:55 -16.4 °C -18.3 °C 34567.7 hPa ENE 22 km/h 22 km/h 73 % 0 mm
18:00 -16.4 °C -18.3 °C 34567.7 hPa ENE 22 km/h 22 km/h 73 % 0 mm
18:05 -16.4 °C -18.3 °C 34567.7 hPa ENE 22 km/h 22 km/h 73 % 0 mm
18:10 -16.4 °C -18.9 °C 34567.7 hPa ENE 22 km/h 22 km/h 73 % 0 mm
18:16 -16.5 °C -18.3 °C 34567.7 hPa ENE 22 km/h 22 km/h 74 % 0 mm
18:21 -16.5 °C -18.3 °C 34567.7 hPa ENE 22 km/h 22 km/h 75 % 0 mm
18:26 -16.6 °C -18.3 °C 34567.7 hPa ENE 22 km/h 22 km/h 75 % 0 mm
18:31 -16.7 °C -18.9 °C 34567.7 hPa ENE 22 km/h 22 km/h 76 % 0 mm
18:36 -16.7 °C -18.3 °C 34567.7 hPa ENE 22 km/h 22 km/h 77 % 0 mm
18:41 -16.7 °C -18.3 °C 34567.7 hPa ENE 22 km/h 22 km/h 78 % 0 mm
18:46 -16.7 °C -18.3 °C 34567.7 hPa ENE 22 km/h 22 km/h 79 % 0 mm
18:51 -16.7 °C -18.3 °C 34567.7 hPa ENE 22 km/h 22 km/h 79 % 0 mm
18:56 -16.7 °C -18.3 °C 34567.7 hPa ENE 22 km/h 22 km/h 79 % 0 mm
19:01 -16.7 °C -18.3 °C 34567.7 hPa ENE 22 km/h 22 km/h 79 % 0 mm
19:06 -16.8 °C -18.3 °C 34567.7 hPa ENE 22 km/h 22 km/h 79 % 0 mm
19:11 -16.7 °C -18.3 °C 34567.7 hPa ENE 22 km/h 22 km/h 79 % 0 mm
19:16 -16.7 °C -18.3 °C 34533.8 hPa ENE 22 km/h 22 km/h 78 % 0 mm
19:21 -16.8 °C -18.9 °C 34533.8 hPa ENE 22 km/h 22 km/h 77 % 0 mm
19:26 -16.8 °C -18.9 °C 34533.8 hPa ENE 22 km/h 22 km/h 77 % 0 mm
19:31 -16.8 °C -18.9 °C 34567.7 hPa NE 23.8 km/h 23.8 km/h 77 % 0 mm
19:36 -16.9 °C -18.9 °C 34567.7 hPa NNE 14.5 km/h 23.8 km/h 77 % 0 mm
19:41 -17 °C -18.9 °C 34567.7 hPa NNE 15 km/h 23.8 km/h 78 % 0 mm
19:46 -17.1 °C -18.9 °C 34533.8 hPa North 19.2 km/h 19.2 km/h 78 % 0 mm
19:51 -17.2 °C -18.9 °C 34533.8 hPa North 19.2 km/h 19.2 km/h 79 % 0 mm
19:56 -17.3 °C -18.9 °C 34533.8 hPa NNE 19.6 km/h 19.6 km/h 81 % 0 mm
20:01 -17.3 °C -18.9 °C 34533.8 hPa NNE 19.6 km/h 19.6 km/h 81 % 0 mm
20:06 -17.4 °C -18.9 °C 34533.8 hPa NNE 19.6 km/h 19.6 km/h 82 % 0 mm
20:11 -17.3 °C -18.3 °C 34533.8 hPa NNE 19.6 km/h 19.6 km/h 84 % 0 mm
20:16 -17.3 °C -18.3 °C 34533.8 hPa NNE 19.6 km/h 19.6 km/h 84 % 0 mm
20:21 -17.3 °C -18.3 °C 34533.8 hPa NNE 19.6 km/h 19.6 km/h 84 % 0 mm
20:26 -17.3 °C -18.3 °C 34533.8 hPa NE 16.9 km/h 16.9 km/h 84 % 0 mm
20:31 -17.3 °C -18.3 °C 34533.8 hPa NE 16.9 km/h 16.9 km/h 85 % 0 mm
20:36 -17.3 °C -18.3 °C 34533.8 hPa NE 16.9 km/h 16.9 km/h 85 % 0 mm
20:41 -17.3 °C -18.3 °C 34533.8 hPa NE 16.9 km/h 16.9 km/h 86 % 0 mm
20:46 -17.3 °C -18.3 °C 34533.8 hPa NE 16.9 km/h 16.9 km/h 86 % 0 mm
20:51 -17.3 °C -18.3 °C 34533.8 hPa NE 16.9 km/h 16.9 km/h 86 % 0 mm
20:56 -17.3 °C -18.3 °C 34533.8 hPa NE 16.9 km/h 16.9 km/h 87 % 0 mm
21:01 -17.3 °C -18.3 °C 34533.8 hPa NE 16.9 km/h 16.9 km/h 87 % 0 mm
21:06 -17.3 °C -18.3 °C 34533.8 hPa NNE 24.8 km/h 24.8 km/h 87 % 0 mm
21:11 -17.3 °C -18.3 °C 34533.8 hPa NNE 24.8 km/h 24.8 km/h 87 % 0 mm
21:16 -17.3 °C -18.3 °C 34533.8 hPa NNE 19.2 km/h 24.8 km/h 87 % 0 mm
21:21 -17.4 °C -18.3 °C 34533.8 hPa NNE 19.2 km/h 24.8 km/h 87 % 0 mm
21:26 -17.4 °C -18.3 °C 34533.8 hPa NNE 19.2 km/h 19.2 km/h 87 % 0 mm
21:31 -17.4 °C -18.3 °C 34533.8 hPa NE 14 km/h 19.2 km/h 87 % 0 mm
21:37 -17.4 °C -18.3 °C 34533.8 hPa NE 16.9 km/h 19.2 km/h 87 % 0 mm
21:42 -17.4 °C -18.3 °C 34533.8 hPa NE 16.9 km/h 16.9 km/h 88 % 0 mm
21:47 -17.5 °C -18.3 °C 34533.8 hPa NE 16.9 km/h 16.9 km/h 88 % 0 mm
21:52 -17.5 °C -18.3 °C 34533.8 hPa NE 16.9 km/h 16.9 km/h 88 % 0 mm
21:57 -17.5 °C -18.3 °C 34533.8 hPa NE 16.9 km/h 16.9 km/h 88 % 0 mm
22:02 -17.5 °C -18.3 °C 34496.6 hPa NE 16.9 km/h 16.9 km/h 89 % 0 mm
22:07 -17.5 °C -18.3 °C 34496.6 hPa NE 16.9 km/h 16.9 km/h 89 % 0 mm
22:12 -17.5 °C -18.3 °C 34496.6 hPa NE 16.9 km/h 16.9 km/h 89 % 0 mm
22:17 -17.5 °C -18.3 °C 34496.6 hPa NE 16.9 km/h 16.9 km/h 89 % 0 mm
22:22 -17.5 °C -18.3 °C 34496.6 hPa NE 16.3 km/h 19.6 km/h 90 % 0 mm
22:27 -17.5 °C -18.3 °C 34496.6 hPa NE 19.2 km/h 20.9 km/h 90 % 0 mm
22:32 -17.5 °C -18.3 °C 34496.6 hPa NE 19.2 km/h 20.9 km/h 90 % 0 mm
22:37 -17.4 °C -18.3 °C 34496.6 hPa NE 19.2 km/h 19.2 km/h 90 % 0 mm
22:43 -17.5 °C -18.3 °C 34496.6 hPa NE 22 km/h 22 km/h 90 % 0 mm
22:48 -17.5 °C -18.3 °C 34496.6 hPa NE 19.6 km/h 22 km/h 90 % 0 mm
22:53 -17.5 °C -18.3 °C 34496.6 hPa NE 20.3 km/h 22 km/h 90 % 0 mm
22:58 -17.5 °C -18.3 °C 34496.6 hPa NE 16.3 km/h 26.7 km/h 90 % 0 mm
23:03 -17.6 °C -18.3 °C 34476.3 hPa ENE 22.5 km/h 33.6 km/h 90 % 0 mm
23:08 -17.6 °C -18.3 °C 34476.3 hPa NE 25.4 km/h 33.6 km/h 90 % 0 mm
23:13 -17.6 °C -18.3 °C 34476.3 hPa NE 20.3 km/h 33.6 km/h 90 % 0 mm
23:18 -17.6 °C -18.3 °C 34496.6 hPa NE 16.9 km/h 33.6 km/h 90 % 0 mm
23:23 -17.6 °C -18.3 °C 34496.6 hPa NNE 22 km/h 27.2 km/h 90 % 0 mm
23:28 -17.6 °C -18.3 °C 34496.6 hPa NNE 22 km/h 27.2 km/h 90 % 0 mm
23:33 -17.6 °C -18.3 °C 34496.6 hPa NE 20.9 km/h 23 km/h 90 % 0 mm
23:38 -17.6 °C -18.3 °C 34496.6 hPa NE 20.3 km/h 23 km/h 90 % 0 mm
23:43 -17.7 °C -18.3 °C 34496.6 hPa NE 19.6 km/h 26.7 km/h 90 % 0 mm
23:48 -17.7 °C -18.3 °C 34496.6 hPa NE 16.9 km/h 26.7 km/h 90 % 0 mm
23:53 -17.7 °C -18.3 °C 34496.6 hPa NE 16.9 km/h 31.9 km/h 90 % 0 mm
23:59 -17.7 °C -18.3 °C 34496.6 hPa NE 20.3 km/h 31.9 km/h 90 % 0 mm
Le Gheer Warneton
Courtoisie de Weather Underground - 2.5 mb

Mise a jour : 18/02/2018 06:24:11
Généré par Cumulus 1.9.4 (1099)